Flag for U.S.A. Weather past 2 weeks in Garland, Texas, U.S.A.

Now
85 °F

Sunny.


Feels Like: 87 °F
Forecast: 76 / 93 °F
Wind: 3 mph from Southeast

Location: Mesquite Metro Airport

Current Time: Sep 3, 2015 at 8:38:56 PM

Latest Report: Sep 3, 2015 at 8:15 PM


Visibility: 10 mi

Pressure: 29.87 "Hg

Humidity: 50%

Dew point: 64 °F

Location of GarlandLocation

Historic Weather in Garland — Graph

°F

Garland temperature yesterday

Maximum temperature yesterday: 93 °F (at 3:50 PM)
Minimum temperature yesterday: 69 °F (at 6:15 AM)
Average temperature yesterday: 78 °F

Past Weeks' High & Low Weather Summary

 TemperatureHumidityPressure
High100 °F (Aug 21, 7:50 PM)100% (Aug 20, 5:50 PM)31.17 "Hg (Aug 20, 5:50 PM)
Low64 °F (Aug 20, 6:50 AM)17% (Aug 26, 4:50 PM)29.85 "Hg (Aug 22, 6:50 PM)
Average78 °F72%30.00 "Hg
* Reported Aug 19 6:50 PM — Sep 3 6:50 PM, Garland, Weather by CustomWeather, © 2015

Note: Actual official high and low records may vary slightly from our data, if they occured in-between our weather recording intervals... More about our weather records

Advertising

Garland weather history for previous 24 hours

 ConditionsComfort  
Time TempWeatherWind HumidityBarometerVisibility
6:50 PM
Thu, Sep 3
90 °FSunny.7 mph43%29.86 "Hg10 mi
5:50 PM91 °FScattered clouds.12 mph41%29.88 "Hg10 mi
4:50 PM91 °FScattered clouds.12 mph41%29.89 "Hg10 mi
3:50 PM91 °FScattered clouds.7 mph38%29.90 "Hg10 mi
2:50 PM91 °FScattered clouds.10 mph38%29.93 "Hg10 mi
1:50 PM91 °FScattered clouds.14 mph36%29.95 "Hg10 mi
12:50 PM90 °FSunny.6 mph41%29.98 "Hg10 mi
11:50 AM88 °FSunny.6 mph46%29.99 "Hg10 mi
10:50 AM84 °FSunny.5 mph58%29.99 "Hg10 mi
9:50 AM81 °FSunny.5 mph70%30.00 "Hg10 mi
8:50 AM77 °FSunny.5 mph79%30.00 "Hg10 mi
7:50 AM72 °FClear.3 mph88%29.99 "Hg10 mi
6:50 AM72 °FClear.5 mph83%29.98 "Hg10 mi
6:15 AM70 °FClear.5 mph88%29.97 "Hg10 mi
5:55 AM70 °FClear.3 mph91%29.97 "Hg10 mi
5:35 AM71 °FClear.No wind90%29.96 "Hg10 mi
5:15 AM71 °FClear.No wind88%29.96 "Hg10 mi
4:55 AM71 °FClear.No wind86%29.96 "Hg10 mi
4:35 AM72 °FClear.No wind85%29.96 "Hg10 mi
4:15 AM72 °FClear.3 mph83%29.96 "Hg10 mi
3:55 AM72 °FClear.3 mph83%29.96 "Hg10 mi
3:35 AM73 °FClear.3 mph81%29.96 "Hg10 mi
3:15 AM73 °FClear.5 mph82%29.96 "Hg10 mi
2:55 AM73 °FClear.5 mph79%29.96 "Hg10 mi
2:35 AM73 °FClear.3 mph78%29.96 "Hg10 mi
2:15 AM74 °FClear.3 mph79%29.96 "Hg10 mi
1:55 AM73 °FClear.6 mph79%29.96 "Hg10 mi
1:15 AM76 °FClear.3 mph71%29.96 "Hg10 mi
12:55 AM76 °FClear.No wind70%29.96 "Hg10 mi
12:35 AM76 °FClear.No wind67%29.96 "Hg10 mi
12:15 AM76 °FClear.3 mph64%29.96 "Hg10 mi
11:55 PM
Wed, Sep 2
77 °FClear.No wind62%29.96 "Hg10 mi
11:35 PM78 °FClear.No wind61%29.97 "Hg10 mi
10:35 PM80 °FClear.5 mph55%29.97 "Hg10 mi
9:55 PM82 °FClear.3 mph53%29.97 "Hg10 mi
9:35 PM82 °FClear.5 mph52%29.97 "Hg10 mi
9:15 PM83 °FClear.6 mph51%29.96 "Hg10 mi
8:55 PM84 °FClear.6 mph50%29.96 "Hg10 mi
8:35 PM85 °FSunny.5 mph48%29.95 "Hg10 mi
8:15 PM86 °FSunny.6 mph47%29.95 "Hg10 mi
Weather by CustomWeather, © 2015

See weather overviewHow to use our weather pages